THORAD AGENA D DEB, 4715

Orbit data source: Space-Track

THORAD AGENA D DEB, 4715 is space debris in SSO originally from a launch on Wed, 08 Apr 1970 UTC launched from the Air Force Western Test Range (AFWTR). Debris objects in space refer to the collection of defunct objects orbiting the Earth. Examples of debris include non-operational satellites, rocket bodies, and fragments generated from explosions, collisions, or faulty payload assembly.

Loading next visibility...
Identifier
4715, 1970-025BZ
Orbit
SSO
Country
Flag of USUS
Related business
Manufacturer
Unknown
Mission
Spacecraft
Bus & Motor
Unknown
Mass
Unknown
Launch date (UTC)
1970-04-08 (56 years ago)
Launch vehicle
Unknown
Launch site
Air Force Western Test Range (AFWTR)
Object type
Payload
Rocket body
Debris
Shape & HBR
Unknown shape, 0.1 m
Radar Cross Section
Small (<0.1 m²)

Expand to show TLE details & history
Last TLE update: 10 hours ago

TLE from 10 hours ago
0 THORAD AGENA D DEB
1 04715U 70025BZ  25353.17067547  .00000256  00000-0  27537-3 0  9996
2 04715  99.1428  54.5802 0035334 228.7588 157.4179 13.82420451788562
Epoch: 2025-12-19T04:05Z
TLE epoch observation values (Epoch: 2025-12-19T04:05:46.360Z)
Latitude
26.0053°
Longitude
-99.35838°
Altitude
982.357 km
Speed
7.351 km/s
True Right ascension
03h 20m 24s
True Declination
25° 52' 27"
Sunlit
Object was in full shadow at epoch
Visualization orbit readout
Latitude
Unknown
Longitude
Unknown
Altitude
Unknown
Speed
Unknown
Apparent Right ascension
Unknown
Apparent Declination
Unknown
Sunlit
N/A
Visualization observer readout
Local Sidereal Time
13:14:46
Azimuth
Unknown
Elevation
Unknown
Doppler factor
Unknown
Orbital elements
Apogee altitude
978.446 km
Perigee altitude
926.642 km
Semi-major axis
7,330.681 km
Eccentricity
0.00353
Inclination
99.1428°
RAAN
54.5802°
Arg. of periapsis
228.7588°
True anomaly
157.57275°
Mean anomaly
157.4179°
Eccentric anomaly
157.49539°
Mean motion
3.45801 °/min
Orbital period
104.11 mins
BSTAR
0.00027537
Loading maneuver chart data...
Computing Atmospheric mass density...

Documentation

Showing up to 5 results
|